Birmingham, United Kingdom

9:57 PM BST on September 19, 2017 (GMT +0100)
Birmingham

Weather History for EGBB - March, 2013

Change the Weather History Date:

Tuesday, March 5, 2013

  Actual Average Record
Temperature  
Mean Temperature 40 °F -  
Max Temperature 57 °F 49 °F 57 °F (2013)
Min Temperature 24 °F 36 °F 17 °F (2001)
Degree Days  
Heating Degree Days 24    
Moisture  
Dew Point 34 °F    
Average Humidity 82    
Maximum Humidity 100    
Minimum Humidity 55    
Precipitation  
Precipitation 0.00 in 0.07 in - ()
Sea Level Pressure  
Sea Level Pressure 29.64 in    
Wind  
Wind Speed 2 mph ()    
Max Wind Speed 8 mph    
Max Gust Speed -    
Visibility 2.5 miles    
Events Fog    
Averages and records for this station are not official NWS values.
T = Trace of Precipitation, MM = Missing Value Source: Averaged Metar Reports

Daily Weather History Graph

Daily Weather History Graph

Search for Another Location

Airport or City:

Trip Planner

Search our weather history database for the weather conditions in past years. The results will help you decide how hot, cold, wet, or windy it might be!

Date:

Astronomy

Mar. 05, 2013 Rise Set
Actual Time 6:44 AM GMT 5:53 PM GMT
Civil Twilight 6:10 AM GMT 6:27 PM GMT
Nautical Twilight 5:30 AM GMT 7:07 PM GMT
Astronomical Twilight 4:50 AM GMT 7:47 PM GMT
Moon 2:16 AM GMT (3/5) 10:42 AM GMT (3/5)
Length of Visible Light 12h 17m
Length of Day
11h 09m
Last Quarter, 43% of the Moon is Illuminated
Mar 5
Last Quarter
Mar 11
New
Mar 19
First Quarter
Mar 27
Full
Apr 3
Last Quarter

Hourly Weather History & Observations

Time (GMT) Temp. Windchill Dew Point Humidity Pressure Visibility Wind Dir Wind Speed Gust Speed Precip Events Conditions
12:20 AM 28.4 °F - 26.6 °F 93% 29.74 in - Calm Calm - N/A   Haze
12:50 AM 30.2 °F - 28.4 °F 93% 29.71 in - Calm Calm - N/A   Haze
1:20 AM 26.6 °F - 24.8 °F 93% 29.71 in - WNW 2.3 mph - N/A   Haze
1:50 AM 26.6 °F - 24.8 °F 93% 29.71 in - Calm Calm - N/A   Haze
2:20 AM 26.6 °F - 26.6 °F 100% 29.71 in 1.9 mi Calm Calm - N/A   Mist
2:50 AM 24.8 °F - 23.0 °F 93% 29.68 in - Calm Calm - N/A   Mist
3:20 AM 24.8 °F - 23.0 °F 93% 29.68 in 2.5 mi Calm Calm - N/A   Mist
3:50 AM 26.6 °F - 24.8 °F 93% 29.68 in 1.9 mi Calm Calm - N/A   Mist
4:20 AM 24.8 °F - 23.0 °F 93% 29.68 in 1.2 mi Calm Calm - N/A   Mist
4:50 AM 24.8 °F - 24.8 °F 100% 29.68 in 1.9 mi WNW 2.3 mph - N/A   Mist
5:20 AM 24.8 °F - 24.8 °F 100% 29.68 in 1.9 mi Calm Calm - N/A   Mist
5:50 AM 26.6 °F - 26.6 °F 100% 29.68 in 1.9 mi Calm Calm - N/A   Mist
6:20 AM 24.8 °F - 24.8 °F 100% 29.68 in 1.2 mi Calm Calm - N/A   Mist
6:50 AM 26.6 °F - 24.8 °F 93% 29.68 in 1.2 mi WNW 2.3 mph - N/A   Mist
7:20 AM 28.4 °F - 26.6 °F 93% 29.68 in 1.3 mi Calm Calm - N/A   Mist
7:50 AM 28.4 °F - 28.4 °F 100% 29.68 in 1.3 mi Calm Calm - N/A   Mist
8:20 AM 30.2 °F - 30.2 °F 100% 29.68 in 1.4 mi Variable 2.3 mph - N/A   Mist
9:20 AM 37.4 °F 34.9 °F 35.6 °F 93% 29.68 in - Variable 3.5 mph - N/A   Haze
9:50 AM 41.0 °F - 37.4 °F 87% 29.65 in - Variable 2.3 mph - N/A   Haze
10:20 AM 42.8 °F - 37.4 °F 81% 29.65 in 2.5 mi Variable 2.3 mph - N/A   Haze
10:50 AM 46.4 °F 44.3 °F 39.2 °F 76% 29.65 in - SE 4.6 mph - N/A   Haze
11:20 AM 48.2 °F - 41.0 °F 76% 29.65 in - Variable 3.5 mph - N/A   Haze
11:50 AM 50.0 °F - 41.0 °F 71% 29.65 in 3.1 mi East 4.6 mph - N/A   Haze
12:20 PM 51.8 °F - 41.0 °F 67% 29.62 in 3.1 mi East 4.6 mph - N/A   Haze
12:50 PM 53.6 °F - 41.0 °F 62% 29.62 in 3.1 mi Variable 3.5 mph - N/A   Unknown
1:20 PM 55.4 °F - 41.0 °F 58% 29.62 in 3.1 mi East 4.6 mph - N/A   Unknown
1:50 PM 55.4 °F - 41.0 °F 58% 29.62 in 3.1 mi ESE 5.8 mph - N/A   Haze
2:20 PM 55.4 °F - 41.0 °F 58% 29.59 in 3.7 mi SE 4.6 mph - N/A   Unknown
2:50 PM 55.4 °F - 41.0 °F 58% 29.59 in 4.3 mi Variable 3.5 mph - N/A   Unknown
3:20 PM 57.2 °F - 41.0 °F 55% 29.59 in 4.3 mi SE 5.8 mph - N/A   Unknown
3:50 PM 57.2 °F - 41.0 °F 55% 29.59 in 4.3 mi SE 4.6 mph - N/A   Unknown
4:20 PM 55.4 °F - 41.0 °F 58% 29.59 in 4.3 mi SE 4.6 mph - N/A   Unknown
4:50 PM 55.4 °F - 41.0 °F 58% 29.59 in 4.3 mi Variable 3.5 mph - N/A   Unknown
5:20 PM 51.8 °F - 41.0 °F 67% 29.59 in 3.7 mi NNE 4.6 mph - N/A   Unknown
5:50 PM 51.8 °F - 42.8 °F 71% 29.59 in 3.1 mi NE 5.8 mph - N/A   Haze
6:20 PM 50.0 °F - 41.0 °F 71% 29.59 in 3.1 mi ENE 5.8 mph - N/A   Haze
6:50 PM 48.2 °F - 41.0 °F 76% 29.59 in 3.1 mi ENE 8.1 mph - N/A   Unknown
7:20 PM 46.4 °F 44.3 °F 41.0 °F 81% 29.59 in 3.1 mi East 4.6 mph - N/A   Unknown
7:50 PM 46.4 °F 42.9 °F 41.0 °F 81% 29.59 in 3.1 mi East 6.9 mph - N/A   Unknown
8:20 PM 44.6 °F 42.2 °F 39.2 °F 81% 29.59 in - ESE 4.6 mph - N/A   Haze
9:20 PM 41.0 °F - 37.4 °F 87% 29.62 in 1.9 mi NW 2.3 mph - N/A   Haze
9:50 PM 39.2 °F - 37.4 °F 93% 29.62 in 2.5 mi Calm Calm - N/A   Haze
10:20 PM 37.4 °F 34.9 °F 35.6 °F 93% 29.62 in 2.5 mi North 3.5 mph - N/A   Haze
10:50 PM 37.4 °F 33.8 °F 35.6 °F 93% 29.62 in 1.9 mi North 4.6 mph - N/A   Haze
11:20 PM 35.6 °F 31.7 °F 33.8 °F 93% 29.59 in 0.5 mi North 4.6 mph - N/A Fog Fog
11:50 PM 35.6 °F 31.7 °F 35.6 °F 100% 29.59 in 0.1 mi North 4.6 mph - N/A Fog Fog